www.pogodaiklimat.ru

Погода и климат >> Архив погоды >> Индонезия >> Аэропорт Сукарно-Хатта


ПОГОДА в Аэропорту Сукарно-Хатта

  • Прогноз погоды в Аэропорту Сукарно-Хатта
  • Монитор погоды в Аэропорту Сукарно-Хатта

АРХИВ ПОГОДЫ в Аэропорту Сукарно-Хатта

Время (UTC), дата Ветер
(напр.,м/с)
 
Видим.   Явления Облачность Т
(С)
Тd
(С)
f
(%)
Тe
(С)
Тes
(С)
Комфортность P
(гПа)
Po
(гПа)
Тmin
(С)
Tmax
(С)
R
(мм)
R24
(мм)
S
(см)
15 13.06 ЮВ 2 7000 м мгла 8/3 600 м
[Sc As op Ci fib]
+28.5 +24.9 81 +41 +41 опасность
перегрева
1012.2 1010.8
18 13.06 Ю 2 5000 м мгла 8/3 600 м
[Sc As op Ci fib]
+27.4 +24.7 85 +39 +39 очень
душно
1010.8 1009.5
21 13.06 Ю 1 6000 м 8/3 600 м
[Sc As op Ci fib]
+27.0 +24.4 86 +38 +38 очень
душно
1009.8 1008.5
00 14.06 ЮЗ 1 6000 м 10/4 600 м
[Sc As op Ci fib]
+26.6 +24.2 87 +37 +38 очень
душно
1011.2 1009.9 +26.0
03 14.06 Ю 2 7000 м 9/3 600 м
[Sc diur, vesp As op Ci fib]
+31.2 +24.3 67 +43 +49 опасность
перегрева
1011.8 1010.5
06 14.06 С 4 7000 м 9/6 540 м
[Cb cap As op Ci fib]
+31.5 +23.9 64 +43 +46 опасность
перегрева
1009.3 1008.0
09 14.06 СЗ 4 8000 м 8/4 570 м
[Cb cap Ac As Ci fib]
+30.7 +24.8 71 +44 +45 опасность
перегрева
1007.7 1006.4
12 14.06 Ю 2 7000 м в посл. час дождь {гроза} 8/3 600 м
[Sc diur, vesp As op Ci fib]
+25.5 +23.7 90 +35 +35 очень
душно
1009.7 1008.4 +32.7 2
15 14.06 ЮЗ 2 5000 м мгла 8/3 600 м
[Sc diur, vesp As op Ci fib]
+25.5 +24.3 93 +35 +35 очень
душно
1011.9 1010.5
18 14.06 Ю 2 5000 м мгла 8/3 600 м
[Sc diur, vesp As op Ci fib]
+25.8 +24.4 92 +36 +36 очень
душно
1010.8 1009.4
21 14.06 Ю 1 5000 м мгла 8/3 600 м
[Sc diur, vesp As op Ci fib]
+25.7 +23.8 89 +35 +35 очень
душно
1010.3 1009.0
00 15.06 Ю 2 7000 м 6/1 660 м
[Sc diur, vesp As op Ci fib]
+26.1 +23.8 87 +36 +36 очень
душно
1011.6 1010.3 +25.4 2
03 15.06 Ю 2 10 км 8/1 600 м
[Sc diur, vesp Ac As Ci fib]
+31.5 +24.4 66 +44 +51 опасность
перегрева
1011.7 1010.4
06 15.06 СВ 3 10 км 8/4 600 м
[Sc As op Ci fib]
+32.5 +23.7 60 +44 +49 опасность
перегрева
1009.0 1007.7
09 15.06 СВ 4 10 км 8/3 600 м
[Sc As op Ci fib]
+31.0 +24.0 66 +43 +44 опасность
перегрева
1008.2 1006.8
12 15.06 СВ 3 8000 м 8/4 600 м
[Sc As op Ci fib]
+29.2 +24.3 75 +41 +41 опасность
перегрева
1009.8 1008.4 +33.0
15 15.06 ЮВ 2 6000 м мгла 9/3 660 м
[Sc As op Ci fib]
+28.0 +23.5 77 +38 +38 очень
душно
1011.5 1010.2
18 15.06 ЮВ 2 5000 м мгла 6/1 660 м
[Sc As op Ci fib]
+27.8 +24.1 80 +39 +39 очень
душно
1011.2 1009.9
21 15.06 ЮЗ 2 5000 м мгла 6/3 600 м
[Sc As op Ci fib]
+26.9 +24.9 89 +39 +39 очень
душно
1010.2 1008.9
00 16.06 ЮЗ 2 5000 м мгла 6/3 600 м
[Sc As op Ci fib]
+26.6 +24.0 86 +37 +37 очень
душно
1011.9 1010.6 +24.3
03 16.06 С 1 8000 м 9/4 600 м
[Sc As op Ci fib]
+31.1 +23.0 62 +41 +46 опасность
перегрева
1012.7 1011.4
06 16.06 С 3 9000 м 9/3 600 м
[Sc As op Ci fib]
+31.5 +23.9 64 +43 +49 опасность
перегрева
1010.6 1009.3
09 16.06 СВ 4 10 км 9/3 600 м
[Sc As op Ci fib]
+30.2 +22.9 65 +40 +41 очень
душно
1009.5 1008.1
12 16.06 ЮЗ 4 8000 м 9/4 600 м
[Sc As op Ci fib]
+29.3 +23.4 71 +40 +40 очень
душно
1011.7 1010.4 +32.5
15 16.06 ЮВ 1 7000 м {дождь} 8/3 600 м
[Sc As op Ci fib]
+25.5 +23.9 91 +35 +35 очень
душно
1012.5 1011.2 9
18 16.06 Ю 2 7000 м {дождь} 8/4 600 м
[Sc As op Ci fib]
+25.1 +23.7 92 +34 +34 очень
душно
1011.5 1010.2 9
21 16.06 Ю 2 5000 м мгла 8/4 600 м
[Sc As op Ci fib]
+25.0 +23.6 92 +34 +34 очень
душно
1010.2 1008.9
00 17.06 Ю 2 5000 м мгла 8/4 600 м
[Sc As op Ci fib]
+25.4 +24.0 92 +35 +35 очень
душно
1011.6 1010.3 +24.8 9
03 17.06 ЮВ 3 7000 м 8/3 600 м
[Sc As op Ci fib]
+29.8 +23.1 67 +40 +45 очень
душно
1011.5 1010.2
06 17.06 СВ 5 9000 м 8/3 600 м
[Sc As op Ci fib]
+31.2 +23.3 63 +42 +45 опасность
перегрева
1009.7 1008.3
09 17.06 СВ 5 10 км 8/3 600 м
[Sc As op Ci fib]
+30.0 +22.4 64 +39 +40 очень
душно
1008.9 1007.6
12 17.06 В 5 8000 м 8/3 600 м
[Sc As op Ci fib]
+28.3 +21.7 67 +36 +36 очень
душно
1010.7 1009.4 +31.5
15 17.06 ЮВ 3 8000 м 8/3 600 м
[Sc As op Ci fib]
+27.1 +22.2 75 +35 +35 очень
душно
1011.9 1010.6
18 17.06 ЮВ 3 5000 м мгла 8/3 600 м
[Sc As op Ci fib]
+25.8 +22.5 82 +34 +34 очень
душно
1011.9 1010.5
21 17.06 ЮВ 1 6000 м 8/3 600 м
[Sc As op Ci fib]
+24.5 +21.7 84 +31 +31 очень
душно
1011.2 1009.8
00 18.06 Ю 2 6000 м 5/1 660 м
[Sc As trans Ci fib]
+24.4 +21.3 83 +31 +32 очень
душно
1011.9 1010.5 +22.7
03 18.06 В 5 9000 м 6/3 630 м
[Sc diur, vesp As trans Ci fib]
+30.6 +20.8 56 +38 +42 очень
душно
1011.9 1010.5
06 18.06 СВ 4 10 км 8/3 600 м
[Sc Ac As Ci fib]
+31.8 +22.2 57 +41 +45 опасность
перегрева
1009.9 1008.5
09 18.06 СВ 5 10 км 6/3 600 м
[Sc As trans Ci fib]
+30.3 +23.1 65 +40 +41 очень
душно
1009.4 1008.0
12 18.06 В 3 7000 м 6/3 600 м
[Sc As trans Ci sp]
+28.3 +21.6 67 +36 +36 очень
душно
1010.7 1009.4 +32.0
15 18.06 ЮВ 2 5000 м мгла 6/1 660 м
[Sc As trans Ci fib]
+26.4 +22.8 81 +35 +35 очень
душно
1012.0 1010.7
18 18.06 З 1 4000 м мгла 6/1 660 м
[Sc As trans Ci fib]
+24.3 +21.9 86 +31 +31 очень
душно
1011.7 1010.4
21 18.06 Ю 2 5000 м мгла 6/3 660 м
[Sc As trans Ci fib]
+23.8 +21.7 88 +30 +30 очень
душно
1010.5 1009.2
00 19.06 Ю 3 5000 м мгла 6/3 660 м
[Sc As trans Ci fib]
+24.8 +20.8 78 +31 +31 очень
душно
1011.2 1009.9 +22.6
03 19.06 В 3 8000 м 6/3 630 м
[Sc diur, vesp As trans Ci fib]
+30.6 +22.5 62 +40 +46 очень
душно
1011.7 1010.4
06 19.06 В 6 10 км 6/3 600 м
[Sc diur, vesp As op Ci fib]
+32.1 +21.4 53 +40 +44 очень
душно
1009.6 1008.3
09 19.06 СВ 6 10 км 6/3 600 м
[Sc diur, vesp As op Ci fib]
+30.0 +22.1 63 +39 +40 очень
душно
1008.7 1007.4
12 19.06 В 2 7000 м 5/3 600 м
[Sc diur, vesp As trans Ci fib]
+27.9 +21.9 70 +36 +36 очень
душно
1009.8 1008.5 +32.6
15 19.06 ЮВ 1 6000 м мгла 5/1 660 м
[Sc diur, vesp As trans Ci fib]
+25.2 +21.5 80 +32 +32 очень
душно
1011.5 1010.2
18 19.06 ЮЗ 1 5000 м мгла 5/1 660 м
[Sc diur, vesp As trans Ci fib]
+24.2 +22.1 88 +31 +31 очень
душно
1011.5 1010.2
21 19.06 Ю 2 5000 м мгла 6/3 630 м
[Sc diur, vesp As trans Ci fib]
+23.7 +22.3 92 +31 +31 очень
душно
1010.8 1009.5
00 20.06 ЮВ 2 5000 м мгла 6/3 630 м
[Sc diur, vesp As trans Ci fib]
+24.3 +22.5 90 +32 +32 очень
душно
1011.5 1010.2 +22.8
03 20.06 СВ 2 7000 м 6/3 600 м
[Sc diur, vesp As op Ci fib]
+30.6 +21.1 57 +38 +45 очень
душно
1011.5 1010.2
06 20.06 СВ 4 9000 м 6/3 600 м
[Sc diur, vesp As op Ci fib]
+32.4 +21.3 52 +40 +46 очень
душно
1009.5 1008.2
09 20.06 СВ 4 10 км 6/3 600 м
[Sc diur, vesp As op Ci fib]
+30.4 +20.9 57 +38 +39 очень
душно
1008.3 1007.0
12 20.06 СВ 3 8000 м 8/3 600 м
[Sc diur, vesp As op Ci fib]
+28.0 +23.5 77 +38 +38 очень
душно
1009.4 1008.1 +32.9

 

Местоположение метеостанции Аэропорт Сукарно-Хатта (Индонезия): широта -6.12 долгота 106.65 высота над уровнем моря 8 м.

В архиве по умолчанию представлена погода в Аэропорту Сукарно-Хатта за последнюю неделю. Архивные данные за месяц целиком и за предыдущие месяцы, начиная с января 2011 года, Вы можете получить, выбрав интересующий диапазон дат из раскрывающегося списка и нажав кнопку "Ввод!".


*Определитесь, кто Вы:
робот инопланетянин человек

Внимание! Время в таблицах - всемирное. Для получения местного времени необходимо прибавить поправку, которая равна 7 ч.

Смотрите также архив погоды в соседних городах и на ближайших метеорологических станциях:

Погода в Чуруге (Индонезия) (12 км)
Погода в Джакарте (Индонезия) (21 км)
Погода в Джакарта порту (Индонезия) (24 км)
Погода в Серанге (Индонезия) (58 км)
Погода в Цитеко (Индонезия) (72 км)
Погода в Бандунге (Индонезия) (134 км)
Погода в Сиребоне (Индонезия) (191 км)
Погода в Танджунгкаранге (Индонезия) (198 км)
Погода в Тегале (Индонезия) (288 км)
Погода в Чилачапе (Индонезия) (316 км)

Пояснения к столбцам:

Ветер - указаны скорость ветра в м/с - средняя за 10 мин, порывы в срок и между сроками (в фигурных скобках) и направление, откуда дует ветер: С - северный, СВ - северо-восточный, В - восточный, ЮВ - юго-восточный, Ю - южный, ЮЗ - юго-западный, З - западный, СЗ - северо-западный.
Видимость - горизонтальная дальность видимости в метрах или километрах. При видимости от 1 до 10 км при отсутствии осадков обычно наблюдается дымка, при ухудшении видимости до 1 км и менее - туман. В сухую погоду видимость может ухудшаться дымом, пылью или мглою.
Явления - указаны атмосферные явления, наблюдавшиеся в срок или в последний час перед сроком; фигурными скобками обозначены явления, наблюдавшиеся между сроками (за 1-3 часа до срока); квадратными скобками обозначены град или гололедные отложения с указанием их диаметра в мм.
Облачность - указаны через наклонную черту общая и нижняя облачность в баллах и высота нижней границы облаков в метрах; квадратными скобками обозначены формы облаков: Ci - перистые, Cs - перисто-слоистые, Cc - перисто-кучевые, Ac - высококучевые, As - высокослоистые, Sc - слоисто-кучевые, Ns - слоисто-дождевые, Cu - кучевые, Cb - кучево-дождевые. Подробнее классификацию облаков см. в Атласе облаков (PDF).
T - Температура воздуха - температура, измеренная на высоте 2 м над землей.
Td - Температура точки росы - температура, при понижении до которой содержащийся в воздухе водяной пар достигнет насыщения.
f - Относительная влажность воздуха - влажноcть воздуха, измеренная на высоте 2 м над землей.
Te - Эффективная температура - температура, которую ощущает одетый по сезону человек в тени. Характеристика душности погоды. При расчете учитывается влияние влажности воздуха и скорости ветра на теплоощущения человека.
Tes - Эффективная температура на солнце - температура, которую ощущает человек, с поправкой на солнечный нагрев. Характеристика знойности погоды. Зависит от высоты солнца над горизонтом, облачности и скорости ветра. Ночью, в пасмурную погоду, а также при ветре 12 м/с и более поправка равна нулю.
P - Атмосферное давление - приведенное к уровню моря атмосферное давление.
Po - Атмосферное давление - измеренное на уровне метеостанции атмосферное давление.
Tmin - Минимальная температура - минимум температуры воздуха на высоте 2 м над землей.
Tmax - Максимальная температура - максимум температуры воздуха на высоте 2 м над землей.
R - Количество осадков - Количество выпавших осадков за период времени, мм. При наведении курсора мыши на число - период времени, за который выпало указанное количество осадков.
R24 - Количество осадков - Количество выпавших осадков за 24 часа, мм.
S - Снежный покров - Высота снежного покрова, см. При наведении курсора мыши на число - состояние снежного покрова и степень покрытия местности в баллах.